Newport News, VA

4:38 PM EDT on September 25, 2016 (GMT -0400)
Felker Army Air Field

Weather History for KFAF - February, 2013

Change the Weather History Date:

Friday, February 8, 2013

  Actual Average Record
Temperature  
Mean Temperature 46 °F -  
Max Temperature 50 °F 50 °F 71 °F (2009)
Min Temperature 41 °F 33 °F 21 °F (2007)
Degree Days  
Heating Degree Days 20    
Moisture  
Dew Point 40 °F    
Average Humidity 85    
Maximum Humidity 93    
Minimum Humidity 53    
Precipitation  
Precipitation 1.38 in - - ()
Sea Level Pressure  
Sea Level Pressure 29.81 in    
Wind  
Wind Speed 12 mph (NNW)    
Max Wind Speed 25 mph    
Max Gust Speed 36 mph    
Visibility 8 miles    
Events Rain    
Averages and records for this station are not official NWS values.
T = Trace of Precipitation, MM = Missing Value Source: NWS Daily Summary

Daily Weather History Graph

Daily Weather History Graph

Search for Another Location

Airport or City:

Trip Planner

Search our weather history database for the weather conditions in past years. The results will help you decide how hot, cold, wet, or windy it might be!

Date:

Astronomy

Feb. 08, 2013 Rise Set
Actual Time 7:02 AM EST 5:39 PM EST
Civil Twilight 6:35 AM EST 6:06 PM EST
Nautical Twilight 6:04 AM EST 6:36 PM EST
Astronomical Twilight 5:34 AM EST 7:07 PM EST
Moon 5:28 AM EST (2/8) 4:10 PM EST (2/8)
Length of Visible Light 11h 30m
Length of Day
10h 36m
Waning Crescent, 3% of the Moon is Illuminated
Feb 8
Waning Crescent
Feb 10
New
Feb 17
First Quarter
Feb 25
Full
Mar 4
Last Quarter

Hourly Weather History & Observations

Time (EST) Temp. Windchill Dew Point Humidity Pressure Visibility Wind Dir Wind Speed Gust Speed Precip Events Conditions
12:55 AM 43.2 °F 38.4 °F 39.4 °F 86% 30.09 in 10.0 mi ENE 8.1 mph - 0.07 in Rain Light Rain
1:55 AM 42.8 °F 37.5 °F 39.7 °F 89% 30.03 in 9.0 mi ENE 9.2 mph - 0.10 in Rain Light Rain
2:55 AM 42.4 °F 35.3 °F 40.1 °F 91% 29.97 in 6.0 mi NE 13.8 mph 19.6 mph 0.11 in   Overcast
3:55 AM 42.4 °F 36.5 °F 40.5 °F 93% 29.93 in 6.0 mi NE 10.4 mph - 0.20 in   Overcast
3:58 AM 42.8 °F 37.0 °F 41.0 °F 93% 29.93 in 6.0 mi ENE 10.4 mph - N/A   Overcast
4:08 AM 42.8 °F 37.5 °F 41.0 °F 93% 29.93 in 6.0 mi NE 9.2 mph - N/A Rain Rain
4:14 AM 42.8 °F 36.6 °F 41.0 °F 93% 29.93 in 6.0 mi NE 11.5 mph - N/A Rain Light Rain
4:28 AM 42.8 °F 38.0 °F 41.0 °F 93% 29.92 in 5.0 mi NE 8.1 mph 18.4 mph N/A Rain Rain
4:33 AM 42.8 °F 36.2 °F 41.0 °F 93% 29.92 in 5.0 mi NE 12.7 mph 18.4 mph N/A Rain Light Rain
4:55 AM 42.4 °F 37.0 °F 40.6 °F 93% 29.89 in 6.0 mi NE 9.2 mph 18.4 mph 0.18 in Rain Light Rain
5:55 AM 42.8 °F 36.6 °F 41.0 °F 93% 29.83 in 6.0 mi NNE 11.5 mph 26.5 mph 0.23 in Rain Light Rain
6:55 AM 43.3 °F 36.8 °F 41.5 °F 93% 29.78 in 8.0 mi North 12.7 mph 24.2 mph 0.18 in Rain Light Rain
7:55 AM 44.1 °F 37.4 °F 42.3 °F 93% 29.74 in 4.0 mi North 13.8 mph 24.2 mph 0.16 in Rain Light Rain
8:55 AM 43.3 °F 36.8 °F 41.2 °F 92% 29.73 in 6.0 mi North 12.7 mph 21.9 mph 0.10 in Rain Light Rain
9:28 AM 42.8 °F 35.8 °F 41.0 °F 93% 29.73 in 10.0 mi NNW 13.8 mph 19.6 mph N/A   Overcast
9:36 AM 42.8 °F 36.2 °F 41.0 °F 93% 29.73 in 5.0 mi North 12.7 mph 19.6 mph N/A Rain Light Rain
9:55 AM 43.5 °F 37.1 °F 41.4 °F 92% 29.72 in 4.0 mi NNW 12.7 mph 18.4 mph 0.02 in Rain Rain
10:43 AM 42.8 °F 35.4 °F 41.0 °F 93% 29.72 in - NW 15.0 mph - N/A Rain Light Rain
10:55 AM 41.9 °F 34.6 °F 39.7 °F 92% 29.73 in 10.0 mi NNW 13.8 mph 21.9 mph 0.02 in   Overcast
11:55 AM 43.7 °F 36.9 °F 41.5 °F 92% 29.71 in 10.0 mi NNW 13.8 mph 20.7 mph 0.01 in   Overcast
12:55 PM 44.8 °F 38.7 °F 42.1 °F 90% 29.70 in 10.0 mi NNW 12.7 mph 20.7 mph N/A   Mostly Cloudy
1:01 PM 44.6 °F 38.1 °F 42.8 °F 93% 29.70 in 10.0 mi NW 13.8 mph 19.6 mph N/A   Overcast
1:45 PM 50.0 °F - 44.6 °F 82% 29.70 in 10.0 mi NW 12.7 mph 21.9 mph N/A   Mostly Cloudy
1:55 PM 49.6 °F - 44.1 °F 81% 29.70 in 10.0 mi NW 15.0 mph - N/A   Mostly Cloudy
2:55 PM 50.2 °F - 42.6 °F 75% 29.70 in 10.0 mi NW 13.8 mph 21.9 mph N/A   Mostly Cloudy
3:53 PM 48.2 °F - 41.0 °F 76% 29.71 in 10.0 mi WNW 13.8 mph 24.2 mph N/A   Scattered Clouds
3:55 PM 49.1 °F - 41.7 °F 76% 29.71 in 10.0 mi WNW 16.1 mph 21.9 mph N/A   Scattered Clouds
4:18 PM 48.2 °F - 41.0 °F 76% 29.74 in 10.0 mi WNW 15.0 mph 23.0 mph N/A   Mostly Cloudy
4:48 PM 46.4 °F 39.2 °F 39.2 °F 76% 29.74 in 10.0 mi WNW 18.4 mph 26.5 mph N/A   Scattered Clouds
4:55 PM 46.4 °F 39.8 °F 39.9 °F 78% 29.74 in 10.0 mi NW 16.1 mph - N/A   Scattered Clouds
5:55 PM 46.2 °F 41.2 °F 40.1 °F 79% 29.77 in 10.0 mi WNW 10.4 mph - N/A   Scattered Clouds
6:55 PM 45.0 °F 41.8 °F 40.1 °F 83% 29.79 in 10.0 mi NW 5.8 mph - N/A   Partly Cloudy
7:55 PM 45.5 °F 40.8 °F 39.7 °F 80% 29.81 in 10.0 mi NW 9.2 mph - N/A   Mostly Cloudy
8:55 PM 44.1 °F 37.7 °F 38.5 °F 81% 29.84 in 10.0 mi NW 12.7 mph - N/A   Clear
9:55 PM 44.6 °F 36.1 °F 30.9 °F 59% 29.86 in 10.0 mi NW 21.9 mph 31.1 mph N/A   Clear
10:55 PM 43.9 °F 34.5 °F 27.7 °F 53% 29.88 in 10.0 mi NW 25.3 mph 35.7 mph N/A   Clear
11:55 PM 42.4 °F 33.5 °F 28.8 °F 58% 29.91 in 10.0 mi NW 20.7 mph 27.6 mph N/A   Partly Cloudy